Location: Ward Pound Ridge Reservation
(41.2500°N, 73.6000°W)
Time: 08:33:12
(UTC-05:00)

N. Korean satellite - Pass Details

Date: 16 October 2017
Orbit: 461 x 513 km, 97.2° (Epoch: 10 December)

Event Time Altitude Azimuth Distance (km) Brightness Sun altitude
Rises 18:38:23 0° 156° (SSE) 2,538 10.0 -5.8°
Reaches altitude 10° 18:40:29 10° 151° (SSE) 1,654 9.0 -6.2°
Maximum altitude 18:43:56 51° 75° (ENE) 605 6.7 -6.8°
Drops below altitude 10° 18:47:21 10° 359° (N) 1,641 9.2 -7.5°
Sets 18:49:26 0° 354° (N) 2,516 10.2 -7.9°
